Year,Month,Day,Hour,Minute,Value (Times are PST for temperature in C)
2012,09,18,00,00,13.30
2012,09,18,00,01,13.30
2012,09,18,00,02,13.30
2012,09,18,00,03,13.30
2012,09,18,00,04,13.30
2012,09,18,00,05,13.20
2012,09,18,00,06,13.20
2012,09,18,00,07,13.20
2012,09,18,00,08,13.10
2012,09,18,00,09,13.10
2012,09,18,00,10,13.10
2012,09,18,00,11,13.00
2012,09,18,00,12,13.00
2012,09,18,00,13,13.00
2012,09,18,00,14,12.90
2012,09,18,00,15,12.90
2012,09,18,00,16,12.80
2012,09,18,00,17,12.80
2012,09,18,00,18,12.80
2012,09,18,00,19,12.80
2012,09,18,00,20,12.70
2012,09,18,00,21,12.70
2012,09,18,00,22,12.70
2012,09,18,00,23,12.70
2012,09,18,00,24,12.70
2012,09,18,00,25,12.70
2012,09,18,00,26,12.70
2012,09,18,00,27,12.70
2012,09,18,00,28,12.70
2012,09,18,00,29,12.60
2012,09,18,00,30,12.70
2012,09,18,00,31,12.70
2012,09,18,00,32,12.70
2012,09,18,00,33,12.70
2012,09,18,00,34,12.70
2012,09,18,00,35,12.70
2012,09,18,00,36,12.70
2012,09,18,00,37,12.70
2012,09,18,00,38,12.70
2012,09,18,00,39,12.70
2012,09,18,00,40,12.70
2012,09,18,00,41,12.70
2012,09,18,00,42,12.70
2012,09,18,00,43,12.70
2012,09,18,00,44,12.70
2012,09,18,00,45,12.70
2012,09,18,00,46,12.70
2012,09,18,00,47,12.80
2012,09,18,00,48,12.80
2012,09,18,00,49,12.80
2012,09,18,00,50,12.80
2012,09,18,00,51,12.80
2012,09,18,00,52,12.80
2012,09,18,00,53,12.80
2012,09,18,00,54,12.80
2012,09,18,00,55,12.80
2012,09,18,00,56,12.80
2012,09,18,00,57,12.70
2012,09,18,00,58,12.70
2012,09,18,00,59,12.70
2012,09,18,01,00,12.70
2012,09,18,01,01,12.70
2012,09,18,01,02,12.60
2012,09,18,01,03,12.60
2012,09,18,01,04,12.60
2012,09,18,01,05,12.60
2012,09,18,01,06,12.60
2012,09,18,01,07,12.50
2012,09,18,01,08,12.50
2012,09,18,01,09,12.50
2012,09,18,01,10,12.40
2012,09,18,01,11,12.40
2012,09,18,01,12,12.40
2012,09,18,01,13,12.40
2012,09,18,01,14,12.40
2012,09,18,01,15,12.30
2012,09,18,01,16,12.30
2012,09,18,01,17,12.30
2012,09,18,01,18,12.30
2012,09,18,01,19,12.30
2012,09,18,01,20,12.30
2012,09,18,01,21,12.30
2012,09,18,01,22,12.30
2012,09,18,01,23,12.30
2012,09,18,01,24,12.30
2012,09,18,01,25,12.30
2012,09,18,01,26,12.30
2012,09,18,01,27,12.30
2012,09,18,01,28,12.30
2012,09,18,01,29,12.30
2012,09,18,01,30,12.30
2012,09,18,01,31,12.30
2012,09,18,01,32,12.30
2012,09,18,01,33,12.30
2012,09,18,01,34,12.30
2012,09,18,01,35,12.30
2012,09,18,01,36,12.30
2012,09,18,01,37,12.30
2012,09,18,01,38,12.30
2012,09,18,01,39,12.30
2012,09,18,01,40,12.30
2012,09,18,01,41,12.30
2012,09,18,01,42,12.30
2012,09,18,01,43,12.30
2012,09,18,01,44,12.30
2012,09,18,01,45,12.20
2012,09,18,01,46,12.20
2012,09,18,01,47,12.20
2012,09,18,01,48,12.20
2012,09,18,01,49,12.20
2012,09,18,01,50,12.20
2012,09,18,01,51,12.10
2012,09,18,01,52,12.10
2012,09,18,01,53,12.10
2012,09,18,01,54,12.10
2012,09,18,01,55,12.00
2012,09,18,01,56,12.00
2012,09,18,01,57,12.00
2012,09,18,01,58,11.90
2012,09,18,01,59,11.90
2012,09,18,02,00,11.90
2012,09,18,02,01,11.90
2012,09,18,02,02,11.90
2012,09,18,02,03,11.90
2012,09,18,02,04,11.90
2012,09,18,02,05,11.90
2012,09,18,02,06,11.90
2012,09,18,02,07,11.90
2012,09,18,02,08,11.90
2012,09,18,02,09,12.00
2012,09,18,02,10,12.00
2012,09,18,02,11,12.00
2012,09,18,02,12,12.00
2012,09,18,02,13,12.00
2012,09,18,02,14,12.00
2012,09,18,02,15,12.00
2012,09,18,02,16,11.90
2012,09,18,02,17,11.90
2012,09,18,02,18,11.90
2012,09,18,02,19,11.90
2012,09,18,02,20,11.80
2012,09,18,02,21,11.80
2012,09,18,02,22,11.80
2012,09,18,02,23,11.80
2012,09,18,02,24,11.90
2012,09,18,02,25,11.90
2012,09,18,02,26,11.90
2012,09,18,02,27,11.90
2012,09,18,02,28,11.90
2012,09,18,02,29,11.90
2012,09,18,02,30,11.90
2012,09,18,02,31,11.90
2012,09,18,02,32,11.90
2012,09,18,02,33,11.90
2012,09,18,02,34,11.90
2012,09,18,02,35,12.00
2012,09,18,02,36,12.00
2012,09,18,02,37,12.00
2012,09,18,02,38,11.90
2012,09,18,02,39,11.90
2012,09,18,02,40,11.90
2012,09,18,02,41,11.90
2012,09,18,02,42,11.90
2012,09,18,02,43,11.90
2012,09,18,02,44,11.90
2012,09,18,02,45,11.90
2012,09,18,02,46,11.80
2012,09,18,02,47,11.80
2012,09,18,02,48,11.80
2012,09,18,02,49,11.80
2012,09,18,02,50,11.80
2012,09,18,02,51,11.80
2012,09,18,02,52,11.80
2012,09,18,02,53,11.80
2012,09,18,02,54,11.80
2012,09,18,02,55,11.90
2012,09,18,02,56,11.90
2012,09,18,02,57,11.90
2012,09,18,02,58,11.90
2012,09,18,02,59,11.90
2012,09,18,03,00,11.90
2012,09,18,03,01,11.90
2012,09,18,03,02,11.90
2012,09,18,03,03,11.80
2012,09,18,03,04,11.90
2012,09,18,03,05,11.90
2012,09,18,03,06,11.90
2012,09,18,03,07,11.90
2012,09,18,03,08,11.90
2012,09,18,03,09,11.90
2012,09,18,03,10,11.90
2012,09,18,03,11,11.90
2012,09,18,03,12,11.90
2012,09,18,03,13,11.90
2012,09,18,03,14,11.90
2012,09,18,03,15,11.90
2012,09,18,03,16,11.80
2012,09,18,03,17,11.90
2012,09,18,03,18,11.80
2012,09,18,03,19,11.80
2012,09,18,03,20,11.80
2012,09,18,03,21,11.80
2012,09,18,03,22,11.80
2012,09,18,03,23,11.80
2012,09,18,03,24,11.80
2012,09,18,03,25,11.80
2012,09,18,03,26,11.70
2012,09,18,03,27,11.70
2012,09,18,03,28,11.70
2012,09,18,03,29,11.70
2012,09,18,03,30,11.70
2012,09,18,03,31,11.70
2012,09,18,03,32,11.70
2012,09,18,03,33,11.70
2012,09,18,03,34,11.70
2012,09,18,03,35,11.70
2012,09,18,03,36,11.70
2012,09,18,03,37,11.70
2012,09,18,03,38,11.80
2012,09,18,03,39,11.80
2012,09,18,03,40,11.80
2012,09,18,03,41,11.80
2012,09,18,03,42,11.80
2012,09,18,03,43,11.80
2012,09,18,03,44,11.80
2012,09,18,03,45,11.80
2012,09,18,03,46,11.80
2012,09,18,03,47,11.80
2012,09,18,03,48,11.80
2012,09,18,03,49,11.80
2012,09,18,03,50,11.80
2012,09,18,03,51,11.80
2012,09,18,03,52,11.80
2012,09,18,03,53,11.80
2012,09,18,03,54,11.80
2012,09,18,03,55,11.80
2012,09,18,03,56,11.80
2012,09,18,03,57,11.80
2012,09,18,03,58,11.80
2012,09,18,03,59,11.80
2012,09,18,04,00,11.80
2012,09,18,04,01,11.80
2012,09,18,04,02,11.80
2012,09,18,04,03,11.80
2012,09,18,04,04,11.80
2012,09,18,04,05,11.80
2012,09,18,04,06,11.80
2012,09,18,04,07,11.80
2012,09,18,04,08,11.80
2012,09,18,04,09,11.80
2012,09,18,04,10,11.80
2012,09,18,04,11,11.80
2012,09,18,04,12,11.80
2012,09,18,04,13,11.80
2012,09,18,04,14,11.80
2012,09,18,04,15,11.80
2012,09,18,04,16,11.70
2012,09,18,04,17,11.70
2012,09,18,04,18,11.70
2012,09,18,04,19,11.70
2012,09,18,04,20,11.60
2012,09,18,04,21,11.60
2012,09,18,04,22,11.60
2012,09,18,04,23,11.60
2012,09,18,04,24,11.60
2012,09,18,04,25,11.60
2012,09,18,04,26,11.60
2012,09,18,04,27,11.60
2012,09,18,04,28,11.60
2012,09,18,04,29,11.60
2012,09,18,04,30,11.60
2012,09,18,04,31,11.60
2012,09,18,04,32,11.60
2012,09,18,04,33,11.50
2012,09,18,04,34,11.50
2012,09,18,04,35,11.50
2012,09,18,04,36,11.50
2012,09,18,04,37,11.50
2012,09,18,04,38,11.50
2012,09,18,04,39,11.50
2012,09,18,04,40,11.50
2012,09,18,04,41,11.50
2012,09,18,04,42,11.50
2012,09,18,04,43,11.50
2012,09,18,04,44,11.50
2012,09,18,04,45,11.60
2012,09,18,04,46,11.60
2012,09,18,04,47,11.50
2012,09,18,04,48,11.50
2012,09,18,04,49,11.50
2012,09,18,04,50,11.50
2012,09,18,04,51,11.60
2012,09,18,04,52,11.50
2012,09,18,04,53,11.50
2012,09,18,04,54,11.50
2012,09,18,04,55,11.50
2012,09,18,04,56,11.50
2012,09,18,04,57,11.50
2012,09,18,04,58,11.50
2012,09,18,04,59,11.40
2012,09,18,05,00,11.40
2012,09,18,05,01,11.40
2012,09,18,05,02,11.40
2012,09,18,05,03,11.50
2012,09,18,05,04,11.40
2012,09,18,05,05,11.50
2012,09,18,05,06,11.50
2012,09,18,05,07,11.50
2012,09,18,05,08,11.50
2012,09,18,05,09,11.50
2012,09,18,05,10,11.50
2012,09,18,05,11,11.50
2012,09,18,05,12,11.40
2012,09,18,05,13,11.40
2012,09,18,05,14,11.30
2012,09,18,05,15,11.30
2012,09,18,05,16,11.30
2012,09,18,05,17,11.30
2012,09,18,05,18,11.20
2012,09,18,05,19,11.20
2012,09,18,05,20,11.20
2012,09,18,05,21,11.20
2012,09,18,05,22,11.20
2012,09,18,05,23,11.20
2012,09,18,05,24,11.20
2012,09,18,05,25,11.10
2012,09,18,05,26,11.10
2012,09,18,05,27,11.10
2012,09,18,05,28,11.10
2012,09,18,05,29,11.10
2012,09,18,05,30,11.10
2012,09,18,05,31,11.10
2012,09,18,05,32,11.10
2012,09,18,05,33,11.10
2012,09,18,05,34,11.10
2012,09,18,05,35,11.10
2012,09,18,05,36,11.10
2012,09,18,05,37,11.10
2012,09,18,05,38,11.10
2012,09,18,05,39,11.10
2012,09,18,05,40,11.10
2012,09,18,05,41,11.10
2012,09,18,05,42,11.20
2012,09,18,05,43,11.20
2012,09,18,05,44,11.20
2012,09,18,05,45,11.20
2012,09,18,05,46,11.20
2012,09,18,05,47,11.20
2012,09,18,05,48,11.20
2012,09,18,05,49,11.20
2012,09,18,05,50,11.20
2012,09,18,05,51,11.20
2012,09,18,05,52,11.20
2012,09,18,05,53,11.10
2012,09,18,05,54,11.10
2012,09,18,05,55,11.10
2012,09,18,05,56,11.10
2012,09,18,05,57,11.10
2012,09,18,05,58,11.10
2012,09,18,05,59,11.10
2012,09,18,06,00,11.10
2012,09,18,06,01,11.10
2012,09,18,06,02,11.10
2012,09,18,06,03,11.10
2012,09,18,06,04,11.10
2012,09,18,06,05,11.10
2012,09,18,06,06,11.10
2012,09,18,06,07,11.10
2012,09,18,06,08,11.10
2012,09,18,06,09,11.10
2012,09,18,06,10,11.10
2012,09,18,06,11,11.10
2012,09,18,06,12,11.10
2012,09,18,06,13,11.10
2012,09,18,06,14,11.10
2012,09,18,06,15,11.10
2012,09,18,06,16,11.10
2012,09,18,06,17,11.00
2012,09,18,06,18,11.00
2012,09,18,06,19,11.00
2012,09,18,06,20,11.00
2012,09,18,06,21,11.00
2012,09,18,06,22,11.00
2012,09,18,06,23,11.00
2012,09,18,06,24,11.00
2012,09,18,06,25,11.00
2012,09,18,06,26,11.10
2012,09,18,06,27,11.10
2012,09,18,06,28,11.10
2012,09,18,06,29,11.10
2012,09,18,06,30,11.10
2012,09,18,06,31,11.10
2012,09,18,06,32,11.10
2012,09,18,06,33,11.10
2012,09,18,06,34,11.10
2012,09,18,06,35,11.10
2012,09,18,06,36,11.10
2012,09,18,06,37,11.10
2012,09,18,06,38,11.10
2012,09,18,06,39,11.10
2012,09,18,06,40,11.10
2012,09,18,06,41,11.10
2012,09,18,06,42,11.10
2012,09,18,06,43,11.10
2012,09,18,06,44,11.10
2012,09,18,06,45,11.10
2012,09,18,06,46,11.10
2012,09,18,06,47,11.10
2012,09,18,06,48,11.10
2012,09,18,06,49,11.10
2012,09,18,06,50,11.10
2012,09,18,06,51,11.10
2012,09,18,06,52,11.10
2012,09,18,06,53,11.10
2012,09,18,06,54,11.10
2012,09,18,06,55,11.10
2012,09,18,06,56,11.10
2012,09,18,06,57,11.10
2012,09,18,06,58,11.10
2012,09,18,06,59,11.10
2012,09,18,07,00,11.10
2012,09,18,07,01,11.10
2012,09,18,07,02,11.10
2012,09,18,07,03,11.10
2012,09,18,07,04,11.10
2012,09,18,07,05,11.00
2012,09,18,07,06,11.00
2012,09,18,07,07,11.00
2012,09,18,07,08,11.00
2012,09,18,07,09,11.00
2012,09,18,07,10,10.90
2012,09,18,07,11,10.90
2012,09,18,07,12,10.90
2012,09,18,07,13,10.90
2012,09,18,07,14,10.90
2012,09,18,07,15,10.90
2012,09,18,07,16,10.90
2012,09,18,07,17,10.90
2012,09,18,07,18,10.90
2012,09,18,07,19,10.90
2012,09,18,07,20,10.90
2012,09,18,07,21,10.90
2012,09,18,07,22,10.90
2012,09,18,07,23,10.90
2012,09,18,07,24,10.90
2012,09,18,07,25,10.90
2012,09,18,07,26,10.90
2012,09,18,07,27,10.80
2012,09,18,07,28,10.80
2012,09,18,07,29,10.80
2012,09,18,07,30,10.80
2012,09,18,07,31,10.80
2012,09,18,07,32,10.80
2012,09,18,07,33,10.80
2012,09,18,07,34,10.80
2012,09,18,07,35,10.80
2012,09,18,07,36,10.80
2012,09,18,07,37,10.80
2012,09,18,07,38,10.80
2012,09,18,07,39,10.80
2012,09,18,07,40,10.80
2012,09,18,07,41,10.80
2012,09,18,07,42,10.80
2012,09,18,07,43,10.80
2012,09,18,07,44,10.90
2012,09,18,07,45,10.90
2012,09,18,07,46,10.90
2012,09,18,07,47,10.90
2012,09,18,07,48,11.00
2012,09,18,07,49,11.00
2012,09,18,07,50,11.10
2012,09,18,07,51,11.10
2012,09,18,07,52,11.10
2012,09,18,07,53,11.20
2012,09,18,07,54,11.20
2012,09,18,07,55,11.20
2012,09,18,07,56,11.30
2012,09,18,07,57,11.40
2012,09,18,07,58,11.40
2012,09,18,07,59,11.50
2012,09,18,08,00,11.50
2012,09,18,08,01,11.60
2012,09,18,08,02,11.70
2012,09,18,08,03,11.70
2012,09,18,08,04,11.80
2012,09,18,08,05,11.80
2012,09,18,08,06,11.80
2012,09,18,08,07,11.90
2012,09,18,08,08,12.00
2012,09,18,08,09,12.00
2012,09,18,08,10,12.10
2012,09,18,08,11,12.10
2012,09,18,08,12,12.20
2012,09,18,08,13,12.20
2012,09,18,08,14,12.30
2012,09,18,08,15,12.40
2012,09,18,08,16,12.50
2012,09,18,08,17,12.60
2012,09,18,08,18,12.60
2012,09,18,08,19,12.70
2012,09,18,08,20,12.80
2012,09,18,08,21,12.90
2012,09,18,08,22,13.00
2012,09,18,08,23,13.00
2012,09,18,08,24,13.10
2012,09,18,08,25,13.20
2012,09,18,08,26,13.20
2012,09,18,08,27,13.30
2012,09,18,08,28,13.30
2012,09,18,08,29,13.40
2012,09,18,08,30,13.40
2012,09,18,08,31,13.50
2012,09,18,08,32,13.60
2012,09,18,08,33,13.70
2012,09,18,08,34,13.90
2012,09,18,08,35,14.10
2012,09,18,08,36,14.20
2012,09,18,08,37,14.40
2012,09,18,08,38,14.50
2012,09,18,08,39,14.70
2012,09,18,08,40,14.80
2012,09,18,08,41,14.90
2012,09,18,08,42,15.00
2012,09,18,08,43,15.00
2012,09,18,08,44,15.00
2012,09,18,08,45,15.00
2012,09,18,08,46,15.00
2012,09,18,08,47,15.10
2012,09,18,08,48,15.20
2012,09,18,08,49,15.30
2012,09,18,08,50,15.30
2012,09,18,08,51,15.40
2012,09,18,08,52,15.60
2012,09,18,08,53,15.70
2012,09,18,08,54,15.90
2012,09,18,08,55,16.00
2012,09,18,08,56,16.20
2012,09,18,08,57,16.40
2012,09,18,08,58,16.50
2012,09,18,08,59,16.70
2012,09,18,09,00,16.90
2012,09,18,09,01,17.10
2012,09,18,09,02,17.30
2012,09,18,09,03,17.50
2012,09,18,09,04,17.70
2012,09,18,09,05,17.80
2012,09,18,09,06,18.00
2012,09,18,09,07,18.20
2012,09,18,09,08,18.30
2012,09,18,09,09,18.50
2012,09,18,09,10,18.60
2012,09,18,09,11,18.70
2012,09,18,09,12,18.80
2012,09,18,09,13,18.90
2012,09,18,09,14,19.00
2012,09,18,09,15,19.10
2012,09,18,09,16,19.20
2012,09,18,09,17,19.40
2012,09,18,09,18,19.50
2012,09,18,09,19,19.60
2012,09,18,09,20,19.70
2012,09,18,09,21,19.80
2012,09,18,09,22,19.90
2012,09,18,09,23,19.90
2012,09,18,09,24,19.90
2012,09,18,09,25,19.90
2012,09,18,09,26,19.90
2012,09,18,09,27,19.90
2012,09,18,09,28,19.90
2012,09,18,09,29,19.90
2012,09,18,09,30,19.90
2012,09,18,09,31,19.90
2012,09,18,09,32,19.90
2012,09,18,09,33,19.90
2012,09,18,09,34,19.90
2012,09,18,09,35,19.80
2012,09,18,09,36,19.60
2012,09,18,09,37,19.50
2012,09,18,09,38,19.30
2012,09,18,09,39,19.30
2012,09,18,09,40,19.30
2012,09,18,09,41,19.30
2012,09,18,09,42,19.20
2012,09,18,09,43,19.20
2012,09,18,09,44,19.20
2012,09,18,09,45,19.20
2012,09,18,09,46,19.10
2012,09,18,09,47,19.00
2012,09,18,09,48,18.90
2012,09,18,09,49,18.90
2012,09,18,09,50,18.90
2012,09,18,09,51,19.00
2012,09,18,09,52,19.00
2012,09,18,09,53,18.90
2012,09,18,09,54,19.00
2012,09,18,09,55,19.00
2012,09,18,09,56,19.00
2012,09,18,09,57,19.00
2012,09,18,09,58,19.00
2012,09,18,09,59,19.00
2012,09,18,10,00,19.10
2012,09,18,10,01,19.10
2012,09,18,10,02,19.10
2012,09,18,10,03,19.10
2012,09,18,10,04,19.20
2012,09,18,10,05,19.20
2012,09,18,10,06,19.20
2012,09,18,10,07,19.30
2012,09,18,10,08,19.40
2012,09,18,10,09,19.50
2012,09,18,10,10,19.50
2012,09,18,10,11,19.60
2012,09,18,10,12,19.70
2012,09,18,10,13,19.90
2012,09,18,10,14,20.00
2012,09,18,10,15,20.10
2012,09,18,10,16,20.20
2012,09,18,10,17,20.20
2012,09,18,10,18,20.20
2012,09,18,10,19,20.20
2012,09,18,10,20,20.20
2012,09,18,10,21,20.20
2012,09,18,10,22,20.30
2012,09,18,10,23,20.30
2012,09,18,10,24,20.20
2012,09,18,10,25,20.20
2012,09,18,10,26,20.20
2012,09,18,10,27,20.20
2012,09,18,10,28,20.30
2012,09,18,10,29,20.30
2012,09,18,10,30,20.40
2012,09,18,10,31,20.50
2012,09,18,10,32,20.60
2012,09,18,10,33,20.60
2012,09,18,10,34,20.70
2012,09,18,10,35,20.80
2012,09,18,10,36,21.00
2012,09,18,10,37,21.10
2012,09,18,10,38,21.20
2012,09,18,10,39,21.20
2012,09,18,10,40,21.20
2012,09,18,10,41,21.20
2012,09,18,10,42,21.20
2012,09,18,10,43,21.40
2012,09,18,10,44,21.50
2012,09,18,10,45,21.60
2012,09,18,10,46,21.60
2012,09,18,10,47,21.70
2012,09,18,10,48,21.80
2012,09,18,10,49,21.80
2012,09,18,10,50,21.80
2012,09,18,10,51,21.90
2012,09,18,10,52,22.00
2012,09,18,10,53,22.00
2012,09,18,10,54,22.10
2012,09,18,10,55,22.20
2012,09,18,10,56,22.30
2012,09,18,10,57,22.40
2012,09,18,10,58,22.30
2012,09,18,10,59,22.30
2012,09,18,11,00,22.20
2012,09,18,11,01,22.20
2012,09,18,11,02,22.10
2012,09,18,11,03,22.10
2012,09,18,11,04,22.10
2012,09,18,11,05,22.00
2012,09,18,11,06,22.00
2012,09,18,11,07,22.00
2012,09,18,11,08,21.90
2012,09,18,11,09,21.80
2012,09,18,11,10,21.80
2012,09,18,11,11,21.80
2012,09,18,11,12,21.70
2012,09,18,11,13,21.70
2012,09,18,11,14,21.60
2012,09,18,11,15,21.50
2012,09,18,11,16,21.40
2012,09,18,11,17,21.50
2012,09,18,11,18,21.60
2012,09,18,11,19,21.60
2012,09,18,11,20,21.70
2012,09,18,11,21,21.70
2012,09,18,11,22,21.80
2012,09,18,11,23,21.90
2012,09,18,11,24,21.90
2012,09,18,11,25,21.90
2012,09,18,11,26,21.90
2012,09,18,11,27,21.90
2012,09,18,11,28,22.00
2012,09,18,11,29,22.00
2012,09,18,11,30,21.80
2012,09,18,11,31,21.80
2012,09,18,11,32,21.70
2012,09,18,11,33,21.80
2012,09,18,11,34,21.90
2012,09,18,11,35,22.10
2012,09,18,11,36,22.20
2012,09,18,11,37,22.40
2012,09,18,11,38,22.40
2012,09,18,11,39,22.40
2012,09,18,11,40,22.30
2012,09,18,11,41,22.30
2012,09,18,11,42,22.30
2012,09,18,11,43,22.30
2012,09,18,11,44,22.30
2012,09,18,11,45,22.40
2012,09,18,11,46,22.40
2012,09,18,11,47,22.40
2012,09,18,11,48,22.40
2012,09,18,11,49,22.40
2012,09,18,11,50,22.30
2012,09,18,11,51,22.10
2012,09,18,11,52,21.90
2012,09,18,11,53,21.80
2012,09,18,11,54,21.70
2012,09,18,11,55,21.70
2012,09,18,11,56,21.80
2012,09,18,11,57,21.80
2012,09,18,11,58,21.90
2012,09,18,11,59,22.00
2012,09,18,12,00,22.00
2012,09,18,12,01,22.10
2012,09,18,12,02,22.10
2012,09,18,12,03,22.10
2012,09,18,12,04,22.20
2012,09,18,12,05,22.20
2012,09,18,12,06,22.30
2012,09,18,12,07,22.30
2012,09,18,12,08,22.40
2012,09,18,12,09,22.50
2012,09,18,12,10,22.60
2012,09,18,12,11,22.70
2012,09,18,12,12,22.80
2012,09,18,12,13,22.80
2012,09,18,12,14,22.80
2012,09,18,12,15,22.70
2012,09,18,12,16,22.70
2012,09,18,12,17,22.70
2012,09,18,12,18,22.70
2012,09,18,12,19,22.70
2012,09,18,12,20,22.70
2012,09,18,12,21,22.70
2012,09,18,12,22,22.70
2012,09,18,12,23,22.60
2012,09,18,12,24,22.60
2012,09,18,12,25,22.60
2012,09,18,12,26,22.70
2012,09,18,12,27,22.60
2012,09,18,12,28,22.60
2012,09,18,12,29,22.60
2012,09,18,12,30,22.70
2012,09,18,12,31,22.70
2012,09,18,12,32,22.90
2012,09,18,12,33,23.00
2012,09,18,12,34,23.10
2012,09,18,12,35,23.10
2012,09,18,12,36,23.30
2012,09,18,12,37,23.40
2012,09,18,12,38,23.40
2012,09,18,12,39,23.50
2012,09,18,12,40,23.50
2012,09,18,12,41,23.60
2012,09,18,12,42,23.70
2012,09,18,12,43,23.80
2012,09,18,12,44,23.90
2012,09,18,12,45,24.00
2012,09,18,12,46,24.10
2012,09,18,12,47,24.00
2012,09,18,12,48,24.00
2012,09,18,12,49,24.10
2012,09,18,12,50,24.00
2012,09,18,12,51,23.90
2012,09,18,12,52,23.80
2012,09,18,12,53,23.80
2012,09,18,12,54,23.80
2012,09,18,12,55,23.70
2012,09,18,12,56,23.70
2012,09,18,12,57,23.70
2012,09,18,12,58,23.80
2012,09,18,12,59,23.80
2012,09,18,13,00,23.90
2012,09,18,13,01,24.00
2012,09,18,13,02,24.00
2012,09,18,13,03,24.00
2012,09,18,13,04,23.90
2012,09,18,13,05,23.90
2012,09,18,13,06,23.90
2012,09,18,13,07,23.90
2012,09,18,13,08,24.00
2012,09,18,13,09,24.00
2012,09,18,13,10,24.10
2012,09,18,13,11,24.10
2012,09,18,13,12,24.10
2012,09,18,13,13,24.10
2012,09,18,13,14,24.10
2012,09,18,13,15,24.10
2012,09,18,13,16,24.00
2012,09,18,13,17,24.00
2012,09,18,13,18,24.00
2012,09,18,13,19,24.00
2012,09,18,13,20,24.00
2012,09,18,13,21,24.10
2012,09,18,13,22,24.10
2012,09,18,13,23,24.10
2012,09,18,13,24,24.10
2012,09,18,13,25,24.10
2012,09,18,13,26,24.20
2012,09,18,13,27,24.10
2012,09,18,13,28,24.10
2012,09,18,13,29,24.10
2012,09,18,13,30,24.10
2012,09,18,13,31,24.10
2012,09,18,13,32,24.00
2012,09,18,13,33,24.00
2012,09,18,13,34,24.10
2012,09,18,13,35,24.10
2012,09,18,13,36,24.10
2012,09,18,13,37,24.10
2012,09,18,13,38,24.00
2012,09,18,13,39,24.00
2012,09,18,13,40,23.90
2012,09,18,13,41,23.80
2012,09,18,13,42,23.70
2012,09,18,13,43,23.60
2012,09,18,13,44,23.50
2012,09,18,13,45,23.40
2012,09,18,13,46,23.40
2012,09,18,13,47,23.30
2012,09,18,13,48,23.20
2012,09,18,13,49,23.20
2012,09,18,13,50,23.20
2012,09,18,13,51,23.10
2012,09,18,13,52,23.10
2012,09,18,13,53,23.00
2012,09,18,13,54,23.00
2012,09,18,13,55,22.90
2012,09,18,13,56,23.00
2012,09,18,13,57,23.00
2012,09,18,13,58,23.10
2012,09,18,13,59,23.10
2012,09,18,14,00,23.10
2012,09,18,14,01,23.10
2012,09,18,14,02,23.10
2012,09,18,14,03,22.90
2012,09,18,14,04,22.80
2012,09,18,14,05,22.70
2012,09,18,14,06,22.70
2012,09,18,14,07,22.70
2012,09,18,14,08,22.70
2012,09,18,14,09,22.70
2012,09,18,14,10,22.80
2012,09,18,14,11,22.80
2012,09,18,14,12,22.90
2012,09,18,14,13,22.90
2012,09,18,14,14,23.00
2012,09,18,14,15,23.00
2012,09,18,14,16,23.00
2012,09,18,14,17,22.90
2012,09,18,14,18,22.90
2012,09,18,14,19,22.90
2012,09,18,14,20,22.90
2012,09,18,14,21,22.90
2012,09,18,14,22,22.90
2012,09,18,14,23,22.80
2012,09,18,14,24,22.80
2012,09,18,14,25,22.80
2012,09,18,14,26,22.70
2012,09,18,14,27,22.70
2012,09,18,14,28,22.70
2012,09,18,14,29,22.70
2012,09,18,14,30,22.70
2012,09,18,14,31,22.70
2012,09,18,14,32,22.70
2012,09,18,14,33,22.70
2012,09,18,14,34,22.70
2012,09,18,14,35,22.70
2012,09,18,14,36,22.70
2012,09,18,14,37,22.60
2012,09,18,14,38,22.60
2012,09,18,14,39,22.70
2012,09,18,14,40,22.70
2012,09,18,14,41,22.70
2012,09,18,14,42,22.60
2012,09,18,14,43,22.60
2012,09,18,14,44,22.50
2012,09,18,14,45,22.30
2012,09,18,14,46,22.10
2012,09,18,14,47,21.90
2012,09,18,14,48,21.80
2012,09,18,14,49,21.60
2012,09,18,14,50,21.50
2012,09,18,14,51,21.40
2012,09,18,14,52,21.30
2012,09,18,14,53,21.20
2012,09,18,14,54,21.20
2012,09,18,14,55,21.20
2012,09,18,14,56,21.10
2012,09,18,14,57,21.10
2012,09,18,14,58,21.10
2012,09,18,14,59,21.20
2012,09,18,15,00,21.30
2012,09,18,15,01,21.40
2012,09,18,15,02,21.50
2012,09,18,15,03,21.60
2012,09,18,15,04,21.70
2012,09,18,15,05,21.70
2012,09,18,15,06,21.60
2012,09,18,15,07,21.60
2012,09,18,15,08,21.60
2012,09,18,15,09,21.60
2012,09,18,15,10,21.60
2012,09,18,15,11,21.60
2012,09,18,15,12,21.70
2012,09,18,15,13,21.70
2012,09,18,15,14,21.80
2012,09,18,15,15,21.80
2012,09,18,15,16,21.90
2012,09,18,15,17,21.90
2012,09,18,15,18,21.90
2012,09,18,15,19,21.80
2012,09,18,15,20,21.80
2012,09,18,15,21,21.80
2012,09,18,15,22,21.90
2012,09,18,15,23,21.90
2012,09,18,15,24,21.90
2012,09,18,15,25,21.80
2012,09,18,15,26,21.80
2012,09,18,15,27,21.70
2012,09,18,15,28,21.60
2012,09,18,15,29,21.60
2012,09,18,15,30,21.60
2012,09,18,15,31,21.60
2012,09,18,15,32,21.70
2012,09,18,15,33,21.70
2012,09,18,15,34,21.70
2012,09,18,15,35,21.80
2012,09,18,15,36,21.80
2012,09,18,15,37,21.80
2012,09,18,15,38,21.80
2012,09,18,15,39,21.70
2012,09,18,15,40,21.70
2012,09,18,15,41,21.70
2012,09,18,15,42,21.70
2012,09,18,15,43,21.70
2012,09,18,15,44,21.70
2012,09,18,15,45,21.70
2012,09,18,15,46,21.70
2012,09,18,15,47,21.70
2012,09,18,15,48,21.70
2012,09,18,15,49,21.70
2012,09,18,15,50,21.70
2012,09,18,15,51,21.70
2012,09,18,15,52,21.70
2012,09,18,15,53,21.70
2012,09,18,15,54,21.70
2012,09,18,15,55,21.60
2012,09,18,15,56,21.70
2012,09,18,15,57,21.70
2012,09,18,15,58,21.70
2012,09,18,15,59,21.80
2012,09,18,16,00,21.80
2012,09,18,16,01,21.80
2012,09,18,16,02,21.80
2012,09,18,16,03,21.90
2012,09,18,16,04,22.00
2012,09,18,16,05,22.00
2012,09,18,16,06,22.00
2012,09,18,16,07,22.00
2012,09,18,16,08,22.00
2012,09,18,16,09,21.90
2012,09,18,16,10,21.90
2012,09,18,16,11,21.90
2012,09,18,16,12,21.90
2012,09,18,16,13,21.90
2012,09,18,16,14,21.90
2012,09,18,16,15,22.00
2012,09,18,16,16,22.00
2012,09,18,16,17,22.10
2012,09,18,16,18,22.10
2012,09,18,16,19,22.00
2012,09,18,16,20,22.00
2012,09,18,16,21,22.00
2012,09,18,16,22,22.00
2012,09,18,16,23,21.90
2012,09,18,16,24,21.90
2012,09,18,16,25,21.90
2012,09,18,16,26,22.00
2012,09,18,16,27,22.00
2012,09,18,16,28,22.10
2012,09,18,16,29,22.10
2012,09,18,16,30,22.10
2012,09,18,16,31,22.10
2012,09,18,16,32,22.10
2012,09,18,16,33,22.10
2012,09,18,16,34,22.10
2012,09,18,16,35,22.00
2012,09,18,16,36,22.00
2012,09,18,16,37,22.10
2012,09,18,16,38,22.10
2012,09,18,16,39,22.10
2012,09,18,16,40,22.10
2012,09,18,16,41,22.10
2012,09,18,16,42,22.10
2012,09,18,16,43,22.10
2012,09,18,16,44,22.10
2012,09,18,16,45,22.10
2012,09,18,16,46,22.10
2012,09,18,16,47,22.00
2012,09,18,16,48,22.00
2012,09,18,16,49,22.00
2012,09,18,16,50,22.00
2012,09,18,16,51,22.00
2012,09,18,16,52,22.00
2012,09,18,16,53,22.00
2012,09,18,16,54,22.00
2012,09,18,16,55,22.00
2012,09,18,16,56,21.90
2012,09,18,16,57,21.90
2012,09,18,16,58,21.90
2012,09,18,16,59,21.80
2012,09,18,17,00,21.80
2012,09,18,17,01,21.70
2012,09,18,17,02,21.60
2012,09,18,17,03,21.60
2012,09,18,17,04,21.60
2012,09,18,17,05,21.60
2012,09,18,17,06,21.60
2012,09,18,17,07,21.60
2012,09,18,17,08,21.60
2012,09,18,17,09,21.60
2012,09,18,17,10,21.70
2012,09,18,17,11,21.70
2012,09,18,17,12,21.70
2012,09,18,17,13,21.80
2012,09,18,17,14,21.70
2012,09,18,17,15,21.70
2012,09,18,17,16,21.70
2012,09,18,17,17,21.60
2012,09,18,17,18,21.60
2012,09,18,17,19,21.50